GFSSW_500_spd_057.txt.gz
Wind_Speed
18 16 15 16 17 17 17 18 22 24 25 26 25 25 26 25 24 26 25 24 26 27 27 28 28 34 47 52 50 47 50 50 44 46 54 48 62 58 48 47 45 43 44 39 43
16 14 12 12 13 15 16 16 16 19 21 23 25 25 25 25 25 23 24 25 26 27 28 28 29 30 35 48 57 54 52 51 45 45 47 52 54 66 51 46 46 44 42 41 38
15 13 12 10 9 10 13 14 14 15 17 19 22 25 25 25 25 24 23 24 25 26 29 29 31 32 34 39 47 56 55 51 50 46 42 47 44 64 59 48 46 46 40 44 44
17 12 12 10 8 8 9 10 11 13 15 16 18 22 25 26 26 24 24 24 24 25 27 29 30 32 34 38 40 45 54 57 51 47 40 43 43 62 65 48 47 45 46 44 46
21 12 10 10 9 7 8 10 11 12 13 14 16 19 22 25 27 27 26 26 26 26 26 27 28 30 32 35 36 40 46 52 54 51 45 42 34 51 74 53 50 49 48 48 49
28 17 9 9 10 9 8 8 10 12 13 14 15 17 19 22 24 28 29 29 29 28 27 27 27 28 30 33 33 35 39 45 50 50 47 46 41 43 63 60 51 56 50 51 55
30 24 14 9 10 13 11 10 10 10 10 12 14 14 18 19 22 25 26 29 31 30 29 29 27 28 28 30 31 31 33 37 42 46 47 46 41 42 44 69 54 64 57 56 54
35 28 21 12 11 15 14 14 13 12 13 12 11 12 13 15 18 21 26 28 29 30 33 32 31 30 30 30 31 31 31 33 35 36 37 41 41 42 46 46 53 62 69 58 58
38 34 28 20 19 14 15 13 15 13 14 13 13 12 12 15 17 19 22 25 30 32 33 34 34 34 33 34 33 33 33 32 35 34 32 34 37 39 44 43 43 57 67 69 58
37 36 32 28 24 22 16 10 13 14 15 16 15 14 14 15 16 17 19 22 23 26 32 33 34 36 38 36 37 37 36 35 35 36 34 34 35 35 39 40 42 42 47 65 70
35 35 35 29 27 25 22 16 10 13 17 18 19 18 17 18 19 19 20 21 22 23 24 26 29 33 36 37 39 41 40 39 38 40 39 38 38 36 37 39 40 43 41 45 75
33 33 33 32 29 26 22 19 16 14 16 18 18 19 20 20 22 22 24 24 23 23 23 23 25 28 30 33 35 37 39 40 41 42 43 41 40 41 40 41 42 43 45 46 48
32 31 30 29 29 26 25 23 21 19 17 15 15 16 19 20 22 24 24 25 25 25 24 24 24 27 28 28 30 32 34 36 38 39 40 41 41 39 40 43 45 47 47 48 50
31 30 28 28 26 26 25 24 24 23 20 16 20 21 22 22 22 23 26 25 24 24 25 24 25 25 26 27 29 30 32 34 35 36 37 39 40 36 38 41 44 45 47 49 52
29 29 28 27 26 24 24 24 23 22 22 23 23 24 24 23 22 25 24 26 26 29 27 26 26 24 26 28 29 30 31 32 32 33 33 32 38 37 35 38 40 43 45 48 50
28 28 27 26 25 24 23 23 24 24 24 23 23 23 25 23 23 24 22 22 21 23 25 26 26 24 25 27 29 30 31 31 31 32 33 32 35 35 34 39 40 42 45 46 48
28 27 26 26 25 24 24 23 23 24 25 26 26 25 23 22 23 24 24 25 27 25 25 24 26 23 24 27 28 29 30 31 31 30 32 34 36 34 38 41 46 50 50 53 54
27 27 27 26 26 26 24 23 23 24 25 26 26 27 25 24 24 24 25 25 25 27 29 27 26 26 26 26 27 27 28 28 31 30 30 32 37 33 36 35 37 50 56 57 60
25 26 26 26 27 26 26 25 25 25 26 26 27 27 26 25 25 24 24 26 27 27 28 29 27 24 23 27 27 27 26 26 27 26 28 29 30 28 27 33 46 50 55 62 65
24 26 26 27 27 28 28 28 28 27 28 28 28 28 28 28 26 25 25 25 25 26 27 28 27 26 24 25 24 27 25 22 22 26 25 23 22 19 26 36 43 50 56 60 64
25 26 27 27 30 30 30 30 30 30 30 31 30 31 30 30 27 26 25 26 24 22 21 23 25 24 23 22 26 30 24 22 24 24 26 27 21 26 31 31 39 46 50 49 52
26 25 26 28 30 32 31 31 31 31 33 34 33 34 33 32 31 27 24 26 24 24 22 20 20 17 17 23 25 26 25 23 23 24 28 30 23 31 36 35 36 43 47 51 46
26 26 26 28 30 32 32 33 32 32 34 37 38 38 37 34 33 30 24 25 26 24 23 21 22 19 18 22 24 24 24 23 24 25 22 28 27 35 36 36 39 38 41 43 40
26 27 26 28 31 33 33 32 35 36 39 41 42 42 38 34 33 31 25 24 22 24 24 22 20 16 18 21 23 20 20 21 25 27 25 28 26 29 32 33 34 34 40 35 42
27 27 29 30 31 35 37 38 38 39 42 46 48 44 37 32 30 28 24 22 22 21 19 21 14 16 16 19 21 20 16 23 28 27 30 27 34 34 41 42 39 44 44 41 41
31 28 29 30 32 34 37 38 41 43 46 48 50 45 36 28 25 21 20 20 18 21 19 18 14 15 12 19 20 16 17 24 27 26 31 32 34 39 44 39 47 50 48 44 45
29 28 29 30 32 34 36 39 43 46 49 53 52 42 30 24 22 16 16 20 16 16 18 16 15 16 12 18 20 17 19 23 27 30 32 35 36 41 38 46 55 52 45 44 42

GFSSW_500_spd_060.txt.gz
Wind_Speed
15 12 11 11 11 14 15 16 16 19 23 26 28 28 29 29 29 28 27 28 28 27 27 29 27 27 29 31 40 52 57 56 52 52 47 48 49 48 63 46 48 50 41 38 40
16 9 9 8 8 8 11 13 14 15 16 19 23 26 28 28 28 28 27 27 29 29 28 29 29 28 30 31 34 43 56 56 53 48 51 45 45 52 55 51 46 51 49 41 38
19 8 8 6 6 5 6 8 10 13 15 16 17 19 22 26 27 28 28 27 27 29 29 29 30 30 31 33 33 34 43 50 53 58 50 47 47 40 51 69 48 54 52 45 42
27 15 4 6 5 5 5 5 7 10 12 14 16 18 19 21 26 26 28 29 28 27 28 29 30 31 33 33 36 36 36 43 56 55 56 51 45 46 42 54 58 55 50 48 47
30 25 5 3 5 5 6 7 7 8 9 10 12 15 18 21 23 25 28 30 29 28 27 28 30 30 32 33 35 35 39 39 44 48 54 55 50 48 49 51 69 61 55 51 52
33 27 17 7 6 7 8 7 7 8 9 10 12 13 15 19 21 24 26 29 31 31 29 29 30 30 31 32 32 36 37 38 42 43 48 55 55 54 52 46 38 70 63 57 57
35 30 22 14 6 8 9 11 10 9 9 10 11 12 15 17 20 23 24 26 29 32 33 32 31 31 30 32 32 32 32 35 39 38 41 49 53 54 53 47 39 57 67 63 60
33 31 28 22 17 8 7 11 13 13 13 14 14 13 14 15 17 20 22 25 29 30 31 34 34 33 33 32 32 32 32 32 37 36 35 38 41 50 50 49 46 44 71 66 64
31 31 27 25 24 20 12 8 10 12 13 15 16 17 17 17 18 19 20 22 25 29 32 33 33 36 35 34 34 33 31 33 37 33 33 33 36 45 43 47 47 42 54 68 67
31 29 28 25 23 21 21 17 13 8 10 13 16 19 20 20 20 20 20 21 22 24 26 28 33 35 35 36 34 38 34 36 35 36 33 34 34 35 37 42 42 42 46 55 69
29 28 27 26 25 23 21 18 15 12 12 12 15 18 20 22 23 23 23 23 23 23 24 24 27 29 35 36 38 39 38 38 38 39 35 36 35 34 35 37 39 41 43 42 64
28 27 26 25 23 23 21 19 17 14 13 12 12 13 15 17 20 23 25 27 26 26 25 25 26 30 29 31 32 34 38 38 41 41 41 39 38 36 35 37 37 38 41 43 44
24 25 25 23 22 21 21 20 19 17 15 12 14 15 15 17 19 21 23 25 27 28 27 27 30 29 29 29 29 31 33 37 37 40 39 41 40 41 39 39 40 40 40 43 45
23 22 22 22 22 21 20 20 20 19 18 17 17 17 17 19 20 20 22 24 26 26 30 28 30 28 28 28 29 30 35 34 34 34 33 37 34 38 36 39 41 43 45 47 49
22 21 21 21 20 20 21 20 20 20 20 20 21 21 21 20 21 22 22 22 22 25 24 27 31 28 27 29 31 30 32 33 32 33 33 32 34 33 32 36 39 41 43 45 49
23 21 21 19 20 20 21 20 20 21 21 20 21 22 24 24 24 24 23 22 23 25 26 23 25 27 28 30 30 33 33 32 31 31 31 30 32 21 31 30 35 39 41 43 45
25 21 20 20 19 20 20 21 21 21 23 23 23 23 24 25 26 24 24 25 24 25 26 25 27 28 28 32 31 32 32 27 24 27 19 33 29 27 30 30 34 37 40 41 42
24 23 22 21 20 20 21 22 21 22 23 24 25 26 26 26 28 28 27 24 25 24 26 27 27 27 26 31 27 29 32 27 26 17 17 34 31 33 24 29 35 39 41 43 45
23 23 23 23 22 21 23 24 23 24 25 26 27 27 29 28 28 31 30 28 27 24 24 25 28 33 28 27 32 27 30 32 34 31 33 30 28 24 28 28 33 35 39 44 48
24 22 22 23 23 23 24 24 25 25 27 27 28 28 30 32 31 32 32 32 29 25 22 23 24 30 30 27 26 27 31 32 30 31 28 24 22 19 27 25 31 35 41 41 42
25 24 23 23 23 24 25 26 26 27 28 29 30 32 32 33 33 32 33 32 31 26 24 23 22 20 30 31 32 31 34 34 29 27 25 23 16 24 24 30 32 34 37 39 40
27 26 23 23 24 25 25 28 28 29 31 33 35 36 36 34 32 33 31 29 28 28 25 22 21 20 22 20 28 29 29 28 26 25 25 27 23 27 23 27 29 32 35 38 41
28 27 25 24 24 25 26 28 29 31 33 37 40 41 40 35 33 32 28 26 25 25 22 15 16 16 18 20 19 23 24 24 24 27 27 28 22 20 26 27 29 32 36 38 41
28 27 25 24 23 25 26 28 32 33 36 40 43 44 42 36 30 29 27 24 22 22 19 21 18 17 18 18 20 23 24 24 27 31 28 27 24 27 27 31 36 36 38 42 46
29 28 28 26 24 25 27 30 33 36 38 41 45 44 40 31 25 22 22 20 19 18 18 18 15 17 18 23 28 24 22 24 27 25 30 27 29 29 32 35 39 42 45 42 47
30 29 28 29 25 26 29 31 32 35 40 42 44 44 39 27 19 17 16 14 13 15 16 12 12 13 14 19 21 21 18 22 26 29 32 33 32 32 34 40 44 46 49 55 58
28 28 28 29 25 25 28 31 33 36 38 42 42 38 31 21 15 10 8 11 13 13 13 12 13 14 13 17 18 17 18 20 23 26 31 32 33 36 38 41 44 48 53 55 58

GFSSW_500_spd_063.txt.gz
Wind_Speed
19 12 9 7 7 10 13 14 14 14 17 20 23 25 27 28 29 29 30 30 31 30 32 32 31 32 33 30 30 31 36 47 50 40 38 36 36 51 49 48 56 51 45 56 44
24 12 6 4 3 4 7 11 12 13 13 14 18 21 25 27 29 31 30 31 31 31 32 33 31 31 33 32 33 33 34 31 39 38 38 39 36 46 50 52 48 53 43 44 43
30 13 2 2 4 1 2 5 8 11 12 13 15 16 18 23 26 27 29 31 31 30 30 32 33 31 32 34 34 34 33 28 29 38 37 35 48 39 50 51 47 50 45 52 42
31 21 5 2 3 4 2 2 3 6 10 11 14 15 17 18 23 22 25 28 30 30 30 29 31 31 32 33 33 37 34 33 33 34 39 52 51 51 51 49 49 53 59 65 44
30 28 14 6 4 4 4 4 4 5 7 8 9 12 14 17 21 21 24 26 28 31 31 31 29 31 32 33 34 37 33 36 39 43 47 49 53 53 61 54 53 45 50 51 53
29 26 23 13 6 5 5 7 6 6 7 8 9 11 13 16 18 20 22 23 26 30 31 31 32 31 31 33 32 34 37 37 40 39 44 52 45 50 57 57 60 50 45 43 55
28 25 23 20 15 4 4 6 9 10 10 10 11 12 14 15 17 18 19 22 25 28 32 34 33 32 34 32 35 34 34 35 38 37 40 43 47 44 49 57 62 59 46 42 57
27 25 22 21 20 16 7 3 6 8 13 15 15 16 17 18 19 19 19 21 23 26 30 31 35 36 36 36 34 33 35 35 34 35 39 42 42 41 46 53 59 57 52 47 52
27 25 23 20 17 16 15 10 6 5 7 12 16 18 18 20 21 21 22 22 22 23 25 28 31 34 37 38 37 36 34 33 28 40 38 38 36 34 46 46 48 47 50 50 50
25 25 23 21 20 17 14 13 11 9 8 9 13 16 19 21 22 24 24 24 24 23 23 24 26 29 34 36 36 21 27 34 26 31 37 37 34 34 44 39 39 42 45 47 48
23 22 21 21 19 17 16 14 12 10 10 9 11 13 14 16 18 21 23 26 27 26 26 27 25 26 27 29 38 42 42 30 21 29 45 36 35 34 39 41 36 37 41 44 47
20 19 19 19 19 17 15 14 14 13 11 14 12 14 15 17 19 21 22 23 26 29 32 29 29 28 30 35 33 32 39 42 41 42 48 43 40 38 39 37 37 35 36 41 47
19 18 17 17 17 17 16 15 13 13 14 15 15 15 17 18 19 21 21 22 23 27 29 31 25 35 35 31 32 31 33 34 32 39 49 41 42 41 39 41 40 38 39 40 43
18 18 17 15 15 16 16 16 16 16 16 12 16 16 18 21 22 22 22 22 23 23 25 29 25 35 34 32 32 30 23 32 40 39 35 35 38 29 40 45 44 43 42 41 41
18 18 17 16 14 14 15 16 16 18 18 19 20 21 21 22 25 28 23 24 22 24 25 20 25 32 26 28 26 32 32 39 34 35 35 33 36 31 24 36 39 41 44 44 44
18 17 18 17 16 15 15 15 17 18 17 21 22 23 25 26 25 28 28 27 24 26 25 25 25 29 27 28 34 34 35 35 34 30 33 29 27 20 22 29 35 36 38 40 43
21 18 17 18 18 17 16 16 19 17 19 22 24 25 24 26 29 30 30 24 28 21 23 20 24 27 32 30 27 29 32 25 21 22 25 20 24 22 28 36 27 30 32 34 38
22 20 18 18 19 18 17 18 18 20 21 25 23 25 26 28 27 28 25 26 24 24 27 27 28 27 32 36 27 25 17 22 22 22 16 18 22 21 28 39 29 31 32 33 35
21 22 21 19 19 19 19 19 21 22 22 24 25 27 27 29 31 30 29 30 26 30 28 26 27 30 34 30 34 23 30 26 31 32 36 25 22 26 30 30 30 31 33 36 37
20 22 21 20 19 19 20 19 22 22 24 25 26 28 28 27 26 28 23 30 36 34 28 26 29 28 32 35 31 31 30 32 27 27 26 24 21 24 29 30 38 34 32 34 37
20 19 21 21 19 20 20 20 23 25 26 27 28 31 32 34 32 27 29 31 33 33 30 24 26 22 26 32 28 28 30 33 32 28 20 24 16 29 17 24 34 29 32 34 36
24 22 21 23 20 20 20 21 23 25 28 29 32 34 37 39 38 29 28 30 33 34 28 23 26 24 22 22 28 32 31 33 31 31 32 37 37 19 22 27 36 32 31 36 37
23 23 24 24 22 22 22 22 24 26 28 30 35 38 41 42 40 30 26 30 31 30 28 22 22 18 14 10 17 22 23 28 33 24 31 28 25 24 29 33 29 28 31 31 32
23 25 23 21 24 23 22 23 25 26 28 31 35 39 39 39 33 26 22 22 19 22 20 20 20 19 20 20 18 16 17 23 29 40 30 29 27 27 28 29 32 32 34 34 38
25 25 25 24 24 22 21 22 24 27 30 34 35 39 39 33 26 18 16 15 14 12 13 15 15 19 19 23 26 26 26 21 25 26 30 27 30 29 33 29 35 39 39 43 44
27 27 26 24 25 25 22 22 23 27 30 32 35 36 33 28 23 15 11 8 7 7 9 9 9 12 16 19 21 24 27 25 27 26 29 31 33 30 26 35 36 36 46 44 45
27 27 29 27 27 25 23 23 23 26 28 31 33 32 28 22 18 13 10 8 7 8 9 7 10 14 15 14 18 14 11 20 24 25 27 29 31 29 35 38 44 47 44 44 46

GFSSW_500_spd_069.txt.gz
Wind_Speed
36 21 16 14 12 8 2 6 7 6 8 10 12 15 19 22 24 25 27 26 28 29 31 32 32 33 34 34 35 35 37 33 30 31 33 36 39 41 40 39 31 33 43 51 61
32 17 17 16 14 11 7 9 9 5 4 6 8 9 12 16 19 21 23 25 26 27 28 30 31 32 33 34 37 38 38 34 32 32 32 33 41 38 29 35 38 37 37 33 50
29 19 15 17 15 12 11 12 10 7 4 4 6 7 8 10 13 19 22 23 25 27 28 29 31 33 33 35 35 37 37 35 36 36 33 30 38 36 28 36 35 39 40 35 37
26 24 16 12 14 13 11 11 9 6 4 2 3 4 6 7 7 11 16 19 23 27 29 31 32 34 35 36 36 40 40 40 39 39 37 37 36 45 38 36 31 37 44 41 40
23 23 22 17 8 9 9 8 6 5 3 2 1 4 6 7 4 14 14 16 18 21 25 28 32 34 35 37 38 40 40 41 41 42 42 39 36 46 48 41 40 41 40 38 38
22 20 20 19 18 8 5 4 4 3 2 2 1 2 5 2 7 8 10 13 16 19 23 25 29 33 35 34 36 37 41 42 43 43 44 45 43 44 43 56 39 37 48 50 43
20 18 18 15 15 15 11 6 4 3 4 4 5 6 8 7 8 12 12 14 16 17 19 23 27 29 32 34 36 39 43 41 39 39 42 46 49 43 46 55 55 63 54 59 54
16 17 15 14 13 12 11 9 7 6 4 5 6 8 10 12 12 12 16 17 19 19 20 22 23 26 30 33 36 40 41 40 35 36 39 37 45 39 40 53 52 57 61 55 55
13 12 13 12 11 11 9 8 6 6 5 4 3 3 5 8 9 12 14 17 20 22 24 26 27 27 30 32 34 38 40 41 37 32 33 36 42 38 39 45 49 52 51 51 56
12 11 11 12 9 8 9 8 6 6 6 4 5 5 6 6 10 11 13 16 18 20 22 26 30 31 31 32 31 32 36 37 36 30 26 26 41 37 40 44 44 47 51 52 50
14 12 11 10 11 8 7 7 8 6 8 7 7 7 9 11 12 14 15 17 21 22 24 27 30 29 31 33 33 32 32 31 33 31 24 31 29 35 42 40 42 44 47 46 46
17 13 13 12 12 12 10 8 8 8 10 9 9 10 12 11 14 15 19 22 24 25 27 29 31 30 32 29 28 30 32 33 37 40 33 27 35 44 45 47 45 38 47 45 44
16 16 14 15 14 14 14 13 12 11 11 12 11 11 12 14 17 21 19 23 26 28 31 32 31 30 30 22 29 32 29 39 43 40 42 38 32 30 44 44 36 37 40 40 43
18 16 15 15 16 15 16 17 16 15 16 12 11 14 15 17 18 21 26 25 27 29 32 34 30 29 24 26 34 39 35 38 36 24 36 47 43 48 50 53 48 44 41 44 45
18 17 18 15 15 16 16 18 19 19 19 16 13 16 18 17 22 27 23 25 29 32 34 30 30 27 25 25 30 33 27 34 35 37 39 43 54 53 56 50 43 38 37 45 50
20 18 19 17 14 17 18 18 18 18 20 22 21 17 18 19 20 25 31 33 28 26 28 30 26 18 27 28 28 34 38 31 29 39 38 24 44 46 38 34 31 35 32 34 38
20 19 19 20 16 18 19 18 17 18 17 17 21 20 22 24 28 27 27 33 34 40 36 37 34 33 29 31 34 38 31 39 31 35 36 26 34 32 20 20 23 31 33 36 36
19 20 20 19 19 17 18 18 16 20 20 25 25 21 21 23 26 27 24 30 33 35 43 45 42 31 28 40 40 40 42 40 39 33 24 27 29 18 18 26 20 29 36 41 43
20 20 21 19 18 18 20 17 19 21 26 20 19 25 22 23 28 30 33 37 36 44 45 48 43 33 35 41 40 32 27 25 40 24 28 23 21 28 34 20 20 29 38 42 41
20 18 22 21 20 19 19 20 21 25 24 20 21 23 25 24 28 29 30 39 46 46 46 41 46 39 37 40 40 34 28 27 29 31 28 26 27 34 27 25 29 26 31 36 41
25 24 23 18 20 19 19 20 23 25 26 23 23 24 27 27 30 32 35 37 40 40 41 50 47 37 38 39 36 28 27 29 31 33 36 36 27 29 38 35 28 35 34 36 44
31 27 26 24 20 20 22 21 21 20 25 25 25 26 25 27 30 33 34 33 38 31 30 28 39 37 20 20 22 21 29 29 33 29 28 32 25 28 32 25 24 22 37 42 41
35 32 26 26 24 24 23 21 23 24 22 22 25 26 24 28 31 30 31 31 30 27 26 27 25 29 26 26 23 28 32 29 21 23 31 31 28 23 30 41 39 37 34 42 40
35 33 30 26 27 23 23 24 23 26 25 22 24 25 23 26 28 29 27 28 24 22 18 16 15 17 18 17 20 26 22 23 31 31 28 24 31 30 30 31 33 31 35 33 34
41 36 31 30 29 27 25 24 23 24 24 25 22 23 23 25 26 26 24 23 18 15 16 11 10 14 14 13 13 13 19 19 22 24 26 22 27 24 26 28 35 41 41 40 36
40 38 36 35 31 28 24 27 27 25 22 22 24 18 23 24 25 23 20 18 15 16 14 12 12 13 10 13 14 15 14 14 17 22 29 29 34 35 34 36 37 47 41 38 32
38 41 38 36 34 33 26 26 25 25 21 22 20 16 22 22 22 21 19 15 13 12 13 12 13 12 8 15 15 13 19 18 20 19 25 34 33 34 30 33 32 32 43 53 51

GFSSW_500_spd_075.txt.gz
Wind_Speed
27 27 18 22 21 19 16 8 3 9 14 20 22 20 21 28 31 32 32 31 30 30 30 29 31 32 31 33 35 39 44 42 39 39 32 31 38 47 52 53 49 51 61 55 60
24 26 22 17 19 17 14 11 0 11 16 19 21 22 22 26 29 30 30 31 30 31 31 30 30 32 33 32 34 37 38 37 36 38 38 34 43 49 54 54 56 52 57 60 63
23 23 23 15 14 15 13 10 9 6 11 15 16 18 21 24 28 30 32 32 31 32 33 33 32 32 33 35 37 36 35 37 38 39 41 36 41 48 55 58 58 57 55 54 59
20 20 21 20 11 10 11 10 9 9 9 8 9 11 14 16 20 24 28 31 32 33 34 34 35 35 35 35 36 37 39 40 37 40 43 41 38 44 53 57 60 64 63 64 66
18 18 17 18 17 9 6 6 7 7 7 8 9 8 9 11 12 15 17 19 23 26 29 32 35 35 35 36 38 39 38 41 40 42 44 45 44 42 41 51 61 64 65 64 67
17 16 15 15 14 14 11 4 1 2 4 5 7 8 9 10 10 10 12 14 16 18 19 22 23 26 29 31 33 37 39 41 43 40 40 42 42 43 40 49 53 60 65 65 67
17 15 14 13 12 10 9 8 7 1 4 5 6 7 9 11 9 10 11 13 14 15 17 19 21 23 24 26 30 32 35 37 38 42 44 43 45 42 37 45 54 56 60 63 63
19 16 14 13 11 10 8 5 4 4 2 3 7 10 11 12 13 14 14 15 16 18 20 20 22 23 24 26 29 31 33 34 35 38 40 41 49 44 39 41 46 58 59 59 58
19 18 14 14 12 11 9 7 5 3 3 3 3 5 8 11 13 13 14 17 19 21 23 23 25 26 28 30 31 30 35 36 35 38 43 45 48 47 46 43 49 50 63 65 64
20 19 17 14 13 13 12 10 9 7 6 7 7 8 8 10 11 12 14 14 16 17 19 21 21 21 24 29 30 34 36 38 41 40 44 48 50 51 52 51 48 51 58 67 68
22 21 19 17 14 14 14 14 12 12 10 10 10 11 13 13 13 13 15 17 17 17 20 21 22 21 28 31 32 34 37 40 42 45 48 49 52 52 54 54 53 48 52 59 64
24 21 21 19 17 14 16 15 15 15 15 13 14 13 15 16 17 18 18 19 21 22 22 23 23 26 30 32 36 39 42 44 45 44 49 49 52 51 52 55 54 52 49 54 57
25 23 23 19 19 17 16 17 15 17 19 19 19 19 19 19 21 21 20 22 25 26 25 25 29 30 33 36 40 42 44 46 50 44 48 51 52 49 50 50 52 54 53 50 52
23 24 24 22 20 19 19 17 17 18 19 22 23 23 22 20 24 26 26 26 27 28 28 24 30 33 35 37 40 44 40 43 39 43 44 45 52 48 47 53 50 52 53 51 57
21 24 24 24 21 20 18 18 18 19 22 21 22 23 23 22 26 30 30 28 26 28 31 26 30 34 35 36 37 42 40 39 37 43 48 40 49 41 40 48 50 51 53 53 55
24 20 23 25 22 21 20 18 19 21 23 24 22 22 22 23 26 28 29 31 31 33 33 31 34 36 37 33 36 40 42 39 42 46 51 32 44 42 32 36 44 56 57 58 58
24 23 19 22 23 21 21 21 20 23 26 26 23 20 20 21 27 29 30 32 32 33 32 34 37 41 45 48 44 44 45 50 53 48 52 38 42 38 35 29 32 42 55 63 58
27 27 27 23 22 24 24 23 22 26 29 27 26 24 26 25 28 28 28 31 31 34 35 38 41 44 47 50 51 49 48 51 55 52 42 38 38 33 37 37 31 33 42 51 61
27 31 31 27 27 23 26 25 26 29 28 27 26 25 30 29 29 29 30 32 33 33 36 41 45 46 51 54 55 54 51 51 47 34 40 40 35 31 32 34 36 36 35 40 46
24 28 31 30 29 29 27 28 30 29 26 28 25 26 27 30 32 33 33 34 36 32 35 42 46 45 47 47 47 46 40 37 41 45 43 32 31 30 27 29 34 31 30 34 31
25 26 29 29 28 28 27 29 30 30 28 30 30 28 28 31 33 34 35 33 33 33 37 38 40 37 36 36 34 28 25 26 23 30 24 27 26 27 25 25 28 33 32 29 34
28 26 30 32 29 27 26 27 28 31 31 30 30 28 26 29 32 31 30 30 31 32 34 35 36 29 26 24 24 21 17 21 28 34 30 32 28 29 27 26 29 33 34 24 30
29 28 31 32 31 27 25 23 26 28 28 28 29 27 25 28 31 28 27 28 29 32 32 32 30 25 18 20 19 19 19 25 29 25 26 29 25 30 29 30 32 32 31 19 23
28 30 31 33 33 30 26 25 23 26 26 27 28 28 26 27 29 27 26 26 28 29 28 29 25 24 22 21 21 17 19 20 22 24 20 19 19 24 30 33 20 27 34 27 28
31 31 32 34 36 34 29 29 28 24 25 25 24 27 27 26 26 26 26 23 27 27 26 25 21 21 21 23 22 17 16 17 16 17 22 17 22 19 23 29 26 26 29 30 29
31 32 34 35 37 36 36 28 31 28 24 26 25 26 26 24 24 27 20 22 25 26 26 20 18 21 21 22 20 18 18 17 16 18 20 23 23 23 24 27 30 30 32 35 39
33 34 36 38 38 39 35 32 29 26 25 26 26 24 24 23 25 20 18 22 22 23 26 21 19 19 17 23 20 15 16 14 15 18 19 25 26 28 29 29 30 34 40 42 47